Amateur radio
NORAD ID: 26609
Int'l Code: 2000-072B
Perigee: 997.0 km
Apogee: 58,837.8 km
Inclination: 6.7 °
Period: 1,146.6 minutes
Semi major axis: 36288 km
Launch date: November 16, 2000
Source: Germany (GER)
Two Line Element Set (TLE):
1 26609U 00072B 13136.67115700 -.00000317 00000-0 -49622-1 0 8034
2 26609 006.6545 112.8101 7969603 350.6983 000.3656 01.25588955 57593
Source:
NASA's NSSDC Master Catalog entry for AMSAT OSCAR 40